• In Hungary
  • List of Countries
  • For 7 days
  • Water Temperature
  • Satellite Maps
  • Weather Map
  • News
  • Weather Widgets
  • user-avatar
    Login

    Hourly Weather Widow

    Today, 22 October, Sunday

    Time Temperature Precipitation Wind Pressure Humidity
    00:00 +10°C° 0 mm 1 mps 743 mmHg 85%
    01:00 +10°C° 0 mm 1 mps 742 mmHg 86%
    02:00 +9°C° 0 mm 2 mps 742 mmHg 87%
    03:00 +9°C° 0 mm 2 mps 742 mmHg 88%
    04:00 +8°C° 0 mm 2 mps 741 mmHg 88%
    05:00 +9°C° 0.1 mm 2 mps 741 mmHg 87%
    06:00 +9°C° 0.1 mm 3 mps 741 mmHg 85%
    07:00 +9°C° 0 mm 3 mps 741 mmHg 82%
    08:00 +9°C° 1.3 mm 3 mps 741 mmHg 83%
    09:00 +9°C° 1.3 mm 2 mps 741 mmHg 84%
    10:00 +10°C° 1.3 mm 2 mps 741 mmHg 85%
    11:00 +10°C° 0.9 mm 2 mps 741 mmHg 86%
    12:00 +10°C° 0.9 mm 2 mps 741 mmHg 88%
    13:00 +10°C° 0.9 mm 3 mps 741 mmHg 89%
    14:00 +10°C° 0.4 mm 2 mps 741 mmHg 90%
    15:00 +10°C° 0.4 mm 2 mps 740 mmHg 90%
    16:00 +11°C° 0.4 mm 1 mps 740 mmHg 91%
    17:00 +11°C° 0 mm 1 mps 740 mmHg 92%
    18:00 +10°C° 0 mm 1 mps 740 mmHg 92%
    19:00 +10°C° 0 mm 1 mps 740 mmHg 93%
    20:00 +10°C° 0.1 mm 1 mps 740 mmHg 93%
    21:00 +10°C° 0.1 mm 1 mps 740 mmHg 92%
    22:00 +9°C° 0.1 mm 2 mps 740 mmHg 92%
    23:00 +9°C° 0 mm 2 mps 740 mmHg 91%

    Tomorrow, 23 October, Monday

    Time Temperature Precipitation Wind Pressure Humidity
    00:00 +9°C° 0 mm 2 mps 740 mmHg 91%
    01:00 +9°C° 0 mm 2 mps 740 mmHg 91%
    02:00 +8°C° 0 mm 2 mps 740 mmHg 90%
    03:00 +8°C° 0 mm 2 mps 740 mmHg 89%
    04:00 +8°C° 0 mm 2 mps 740 mmHg 88%
    05:00 +8°C° 0 mm 2 mps 740 mmHg 88%
    06:00 +7°C° 0 mm 3 mps 740 mmHg 88%
    07:00 +7°C° 0 mm 3 mps 740 mmHg 88%
    08:00 +8°C° 0 mm 3 mps 740 mmHg 86%
    09:00 +7°C° 0 mm 4 mps 740 mmHg 84%
    10:00 +8°C° 0 mm 4 mps 740 mmHg 82%
    11:00 +8°C° 0.1 mm 4 mps 740 mmHg 82%
    12:00 +8°C° 0.1 mm 5 mps 740 mmHg 82%
    13:00 +8°C° 0.1 mm 5 mps 740 mmHg 82%
    14:00 +8°C° 0.2 mm 5 mps 740 mmHg 83%
    15:00 +8°C° 0.2 mm 5 mps 740 mmHg 84%
    16:00 +8°C° 0.2 mm 5 mps 740 mmHg 85%
    17:00 +8°C° 0.2 mm 5 mps 741 mmHg 86%
    18:00 +8°C° 0.2 mm 5 mps 741 mmHg 87%
    19:00 +8°C° 0.2 mm 5 mps 742 mmHg 88%
    20:00 +8°C° 0.2 mm 5 mps 742 mmHg 89%
    21:00 +8°C° 0.2 mm 5 mps 742 mmHg 89%
    22:00 +8°C° 0.2 mm 5 mps 743 mmHg 90%
    23:00 +7°C° 0.2 mm 4 mps 743 mmHg 91%

    Day after tomorrow, 24 October, Tuesday

    Time Temperature Precipitation Wind Pressure Humidity
    00:00 +7°C° 0.2 mm 4 mps 744 mmHg 91%
    01:00 +7°C° 0.2 mm 4 mps 744 mmHg 92%
    02:00 +7°C° 0.1 mm 4 mps 744 mmHg 92%
    03:00 +7°C° 0.1 mm 4 mps 745 mmHg 92%
    04:00 +7°C° 0.1 mm 4 mps 745 mmHg 92%
    05:00 +8°C° 0 mm 3 mps 745 mmHg 91%
    06:00 +8°C° 0 mm 3 mps 746 mmHg 91%
    07:00 +8°C° 0 mm 3 mps 746 mmHg 91%
    08:00 +8°C° 0 mm 3 mps 747 mmHg 88%
    09:00 +8°C° 0 mm 2 mps 747 mmHg 86%
    10:00 +9°C° 0 mm 2 mps 747 mmHg 84%
    11:00 +9°C° 0 mm 2 mps 748 mmHg 80%
    12:00 +10°C° 0 mm 2 mps 748 mmHg 77%
    13:00 +12°C° 0 mm 1 mps 748 mmHg 73%
    14:00 +11°C° 0 mm 1 mps 748 mmHg 74%
    15:00 +11°C° 0 mm 1 mps 748 mmHg 75%
    16:00 +11°C° 0 mm 1 mps 748 mmHg 77%
    17:00 +11°C° 0 mm 1 mps 748 mmHg 79%
    18:00 +10°C° 0 mm 1 mps 749 mmHg 81%
    19:00 +9°C° 0 mm 1 mps 749 mmHg 83%
    20:00 +9°C° 0 mm 1 mps 749 mmHg 84%
    21:00 +9°C° 0 mm 1 mps 749 mmHg 85%
    22:00 +8°C° 0 mm 1 mps 749 mmHg 86%
    23:00 +8°C° 0 mm 1 mps 749 mmHg 87%

    25 October, Wednesday

    Time Temperature Precipitation Wind Pressure Humidity
    00:00 +7°C° 0 mm 2 mps 749 mmHg 87%
    01:00 +6°C° 0 mm 2 mps 749 mmHg 88%
    02:00 +6°C° 0 mm 2 mps 749 mmHg 88%
    03:00 +6°C° 0 mm 2 mps 748 mmHg 88%
    04:00 +6°C° 0 mm 2 mps 748 mmHg 87%
    05:00 +5°C° 0 mm 3 mps 748 mmHg 86%
    06:00 +5°C° 0 mm 3 mps 748 mmHg 84%
    07:00 +7°C° 0 mm 3 mps 748 mmHg 82%
    08:00 +8°C° 0.2 mm 3 mps 747 mmHg 79%
    09:00 +8°C° 0.2 mm 4 mps 747 mmHg 76%
    10:00 +10°C° 0.2 mm 4 mps 747 mmHg 73%
    11:00 +11°C° 0.5 mm 4 mps 747 mmHg 76%
    12:00 +11°C° 0.5 mm 4 mps 746 mmHg 79%
    13:00 +12°C° 0.5 mm 4 mps 746 mmHg 83%
    14:00 +12°C° 0 mm 4 mps 746 mmHg 84%
    15:00 +13°C° 0 mm 3 mps 746 mmHg 85%
    16:00 +13°C° 0 mm 3 mps 745 mmHg 86%
    17:00 +13°C° 0.1 mm 3 mps 746 mmHg 87%
    18:00 +13°C° 0.1 mm 3 mps 746 mmHg 89%
    19:00 +13°C° 0.1 mm 3 mps 746 mmHg 90%
    20:00 +13°C° 0 mm 3 mps 746 mmHg 90%
    21:00 +13°C° 0 mm 3 mps 746 mmHg 90%
    22:00 +13°C° 0 mm 3 mps 746 mmHg 90%
    23:00 +12°C° 0 mm 4 mps 746 mmHg 90%

    26 October, Thursday

    Time Temperature Precipitation Wind Pressure Humidity
    00:00 +12°C° 0 mm 4 mps 746 mmHg 90%
    01:00 +12°C° 0 mm 4 mps 746 mmHg 90%
    02:00 +12°C° 0 mm 4 mps 746 mmHg 90%
    03:00 +12°C° 0 mm 4 mps 746 mmHg 91%
    04:00 +11°C° 0 mm 4 mps 746 mmHg 91%
    05:00 +11°C° 0 mm 4 mps 747 mmHg 90%
    06:00 +11°C° 0 mm 4 mps 747 mmHg 90%
    07:00 +11°C° 0 mm 4 mps 747 mmHg 89%
    08:00 +12°C° 0 mm 4 mps 747 mmHg 87%
    09:00 +13°C° 0 mm 4 mps 747 mmHg 85%
    10:00 +14°C° 0 mm 4 mps 747 mmHg 83%
    11:00 +14°C° 0 mm 3 mps 747 mmHg 81%
    12:00 +16°C° 0 mm 3 mps 747 mmHg 79%
    13:00 +16°C° 0 mm 3 mps 746 mmHg 78%
    14:00 +16°C° 0.2 mm 3 mps 746 mmHg 79%
    15:00 +16°C° 0.2 mm 3 mps 746 mmHg 81%
    16:00 +14°C° 0.2 mm 3 mps 745 mmHg 83%
    17:00 +14°C° 0.2 mm 3 mps 745 mmHg 84%
    18:00 +13°C° 0.2 mm 3 mps 745 mmHg 85%
    19:00 +12°C° 0.2 mm 3 mps 745 mmHg 86%
    20:00 +12°C° 0 mm 3 mps 745 mmHg 87%
    21:00 +12°C° 0 mm 3 mps 745 mmHg 87%
    22:00 +12°C° 0 mm 3 mps 745 mmHg 88%
    23:00 +12°C° 0 mm 3 mps 745 mmHg 89%

    27 October, Friday

    Time Temperature Precipitation Wind Pressure Humidity
    00:00 +11°C° 0 mm 3 mps 744 mmHg 90%
    01:00 +11°C° 0 mm 3 mps 744 mmHg 91%
    02:00 +11°C° 0.1 mm 3 mps 744 mmHg 90%
    03:00 +11°C° 0.1 mm 3 mps 743 mmHg 90%
    04:00 +11°C° 0.1 mm 3 mps 743 mmHg 90%
    05:00 +11°C° 0.1 mm 3 mps 743 mmHg 90%
    06:00 +11°C° 0.1 mm 3 mps 742 mmHg 90%
    07:00 +11°C° 0.1 mm 3 mps 742 mmHg 90%
    08:00 +12°C° 0 mm 4 mps 741 mmHg 86%
    09:00 +13°C° 0 mm 5 mps 741 mmHg 81%
    10:00 +14°C° 0 mm 6 mps 740 mmHg 76%
    11:00 +14°C° 0.1 mm 6 mps 739 mmHg 75%
    12:00 +14°C° 0.1 mm 6 mps 738 mmHg 74%
    13:00 +14°C° 0.1 mm 6 mps 738 mmHg 73%
    14:00 +14°C° 0.7 mm 6 mps 737 mmHg 76%
    15:00 +13°C° 0.7 mm 6 mps 736 mmHg 78%
    16:00 +13°C° 0.7 mm 6 mps 736 mmHg 80%
    17:00 +10°C° 1.1 mm 6 mps 736 mmHg 81%
    18:00 +9°C° 1.1 mm 6 mps 736 mmHg 83%
    19:00 +7°C° 1.1 mm 6 mps 736 mmHg 85%
    20:00 +7°C° 0.2 mm 6 mps 737 mmHg 84%
    21:00 +7°C° 0.2 mm 6 mps 737 mmHg 84%
    22:00 +7°C° 0.2 mm 6 mps 738 mmHg 84%
    23:00 +7°C° 0.1 mm 6 mps 738 mmHg 84%
    Show more